Year,Month,Day,Hour,Minute,Value (Times are PST for temperature in C)
2007,07,10,00,00,21.10
2007,07,10,00,01,21.10
2007,07,10,00,02,21.10
2007,07,10,00,03,21.10
2007,07,10,00,04,21.10
2007,07,10,00,05,21.10
2007,07,10,00,06,21.10
2007,07,10,00,07,21.10
2007,07,10,00,08,21.10
2007,07,10,00,09,21.10
2007,07,10,00,10,21.00
2007,07,10,00,11,21.00
2007,07,10,00,12,21.00
2007,07,10,00,13,20.90
2007,07,10,00,14,20.90
2007,07,10,00,15,20.90
2007,07,10,00,16,20.90
2007,07,10,00,17,20.90
2007,07,10,00,18,20.80
2007,07,10,00,19,20.80
2007,07,10,00,20,20.80
2007,07,10,00,21,20.80
2007,07,10,00,22,20.70
2007,07,10,00,23,20.70
2007,07,10,00,24,20.70
2007,07,10,00,25,20.70
2007,07,10,00,26,20.60
2007,07,10,00,27,20.60
2007,07,10,00,28,20.60
2007,07,10,00,29,20.50
2007,07,10,00,30,20.50
2007,07,10,00,31,20.50
2007,07,10,00,32,20.40
2007,07,10,00,33,20.40
2007,07,10,00,34,20.40
2007,07,10,00,35,20.40
2007,07,10,00,36,20.30
2007,07,10,00,37,20.30
2007,07,10,00,38,20.30
2007,07,10,00,39,20.30
2007,07,10,00,40,20.20
2007,07,10,00,41,20.20
2007,07,10,00,42,20.10
2007,07,10,00,43,20.10
2007,07,10,00,44,20.00
2007,07,10,00,45,20.00
2007,07,10,00,46,20.00
2007,07,10,00,47,19.90
2007,07,10,00,48,19.90
2007,07,10,00,49,20.00
2007,07,10,00,50,19.90
2007,07,10,00,51,19.90
2007,07,10,00,52,19.90
2007,07,10,00,53,19.90
2007,07,10,00,54,19.90
2007,07,10,00,55,19.90
2007,07,10,00,56,19.90
2007,07,10,00,57,19.80
2007,07,10,00,58,19.80
2007,07,10,00,59,19.80
2007,07,10,01,00,19.80
2007,07,10,01,01,19.70
2007,07,10,01,02,19.70
2007,07,10,01,03,19.70
2007,07,10,01,04,19.70
2007,07,10,01,05,19.70
2007,07,10,01,06,19.70
2007,07,10,01,07,19.70
2007,07,10,01,08,19.70
2007,07,10,01,09,19.60
2007,07,10,01,10,19.60
2007,07,10,01,11,19.50
2007,07,10,01,12,19.50
2007,07,10,01,13,19.50
2007,07,10,01,14,19.40
2007,07,10,01,15,19.40
2007,07,10,01,16,19.40
2007,07,10,01,17,19.40
2007,07,10,01,18,19.30
2007,07,10,01,19,19.30
2007,07,10,01,20,19.30
2007,07,10,01,21,19.40
2007,07,10,01,22,19.40
2007,07,10,01,23,19.40
2007,07,10,01,24,19.50
2007,07,10,01,25,19.50
2007,07,10,01,26,19.50
2007,07,10,01,27,19.50
2007,07,10,01,28,19.50
2007,07,10,01,29,19.60
2007,07,10,01,30,19.60
2007,07,10,01,31,19.60
2007,07,10,01,32,19.60
2007,07,10,01,33,19.60
2007,07,10,01,34,19.50
2007,07,10,01,35,19.50
2007,07,10,01,36,19.50
2007,07,10,01,37,19.40
2007,07,10,01,38,19.40
2007,07,10,01,39,19.30
2007,07,10,01,40,19.30
2007,07,10,01,41,19.30
2007,07,10,01,42,19.30
2007,07,10,01,43,19.20
2007,07,10,01,44,19.10
2007,07,10,01,45,19.10
2007,07,10,01,46,19.10
2007,07,10,01,47,19.00
2007,07,10,01,48,19.00
2007,07,10,01,49,19.00
2007,07,10,01,50,19.00
2007,07,10,01,51,18.90
2007,07,10,01,52,18.90
2007,07,10,01,53,18.80
2007,07,10,01,54,18.80
2007,07,10,01,55,18.70
2007,07,10,01,56,18.70
2007,07,10,01,57,18.70
2007,07,10,01,58,18.70
2007,07,10,01,59,18.70
2007,07,10,02,00,18.60
2007,07,10,02,01,18.60
2007,07,10,02,02,18.60
2007,07,10,02,03,18.60
2007,07,10,02,04,18.60
2007,07,10,02,05,18.60
2007,07,10,02,06,18.60
2007,07,10,02,07,18.50
2007,07,10,02,08,18.50
2007,07,10,02,09,18.40
2007,07,10,02,10,18.30
2007,07,10,02,11,18.20
2007,07,10,02,12,18.00
2007,07,10,02,13,17.80
2007,07,10,02,14,17.70
2007,07,10,02,15,17.60
2007,07,10,02,16,17.40
2007,07,10,02,17,17.20
2007,07,10,02,18,17.10
2007,07,10,02,19,17.00
2007,07,10,02,20,17.00
2007,07,10,02,21,16.90
2007,07,10,02,22,16.90
2007,07,10,02,23,16.90
2007,07,10,02,24,16.90
2007,07,10,02,25,16.90
2007,07,10,02,26,16.90
2007,07,10,02,27,16.90
2007,07,10,02,28,16.90
2007,07,10,02,29,17.00
2007,07,10,02,30,17.10
2007,07,10,02,31,17.20
2007,07,10,02,32,17.30
2007,07,10,02,33,17.50
2007,07,10,02,34,17.50
2007,07,10,02,35,17.60
2007,07,10,02,36,17.70
2007,07,10,02,37,17.70
2007,07,10,02,38,17.70
2007,07,10,02,39,17.80
2007,07,10,02,40,17.80
2007,07,10,02,41,17.80
2007,07,10,02,42,17.80
2007,07,10,02,43,17.80
2007,07,10,02,44,17.70
2007,07,10,02,45,17.60
2007,07,10,02,46,17.50
2007,07,10,02,47,17.30
2007,07,10,02,48,17.20
2007,07,10,02,49,17.10
2007,07,10,02,50,17.00
2007,07,10,02,51,16.90
2007,07,10,02,52,16.90
2007,07,10,02,53,16.80
2007,07,10,02,54,16.90
2007,07,10,02,55,16.90
2007,07,10,02,56,17.10
2007,07,10,02,57,17.20
2007,07,10,02,58,17.40
2007,07,10,02,59,17.60
2007,07,10,03,00,17.70
2007,07,10,03,01,17.80
2007,07,10,03,02,17.90
2007,07,10,03,03,18.10
2007,07,10,03,04,18.20
2007,07,10,03,05,18.20
2007,07,10,03,06,18.20
2007,07,10,03,07,18.20
2007,07,10,03,08,18.20
2007,07,10,03,09,18.20
2007,07,10,03,10,18.10
2007,07,10,03,11,18.10
2007,07,10,03,12,18.00
2007,07,10,03,13,17.90
2007,07,10,03,14,17.80
2007,07,10,03,15,17.70
2007,07,10,03,16,17.60
2007,07,10,03,17,17.60
2007,07,10,03,18,17.60
2007,07,10,03,19,17.60
2007,07,10,03,20,17.50
2007,07,10,03,21,17.50
2007,07,10,03,22,17.50
2007,07,10,03,23,17.50
2007,07,10,03,24,17.40
2007,07,10,03,25,17.40
2007,07,10,03,26,17.30
2007,07,10,03,27,17.00
2007,07,10,03,28,16.80
2007,07,10,03,29,16.70
2007,07,10,03,30,16.70
2007,07,10,03,31,16.90
2007,07,10,03,32,17.10
2007,07,10,03,33,17.20
2007,07,10,03,34,17.30
2007,07,10,03,35,17.40
2007,07,10,03,36,17.50
2007,07,10,03,37,17.70
2007,07,10,03,38,17.80
2007,07,10,03,39,17.80
2007,07,10,03,40,17.80
2007,07,10,03,41,17.80
2007,07,10,03,42,17.80
2007,07,10,03,43,17.80
2007,07,10,03,44,17.80
2007,07,10,03,45,17.80
2007,07,10,03,46,17.80
2007,07,10,03,47,17.70
2007,07,10,03,48,17.70
2007,07,10,03,49,17.70
2007,07,10,03,50,17.70
2007,07,10,03,51,17.60
2007,07,10,03,52,17.50
2007,07,10,03,53,17.40
2007,07,10,03,54,17.30
2007,07,10,03,55,17.20
2007,07,10,03,56,17.10
2007,07,10,03,57,17.00
2007,07,10,03,58,17.00
2007,07,10,03,59,16.90
2007,07,10,04,00,16.80
2007,07,10,04,01,16.80
2007,07,10,04,02,16.80
2007,07,10,04,03,16.70
2007,07,10,04,04,16.70
2007,07,10,04,05,16.70
2007,07,10,04,06,16.70
2007,07,10,04,07,16.70
2007,07,10,04,08,16.80
2007,07,10,04,09,16.80
2007,07,10,04,10,16.90
2007,07,10,04,11,16.90
2007,07,10,04,12,17.00
2007,07,10,04,13,17.00
2007,07,10,04,14,17.00
2007,07,10,04,15,16.90
2007,07,10,04,16,16.90
2007,07,10,04,17,16.90
2007,07,10,04,18,16.80
2007,07,10,04,19,16.70
2007,07,10,04,20,16.60
2007,07,10,04,21,16.30
2007,07,10,04,22,16.20
2007,07,10,04,23,16.10
2007,07,10,04,24,16.00
2007,07,10,04,25,15.90
2007,07,10,04,26,15.80
2007,07,10,04,27,15.70
2007,07,10,04,28,15.50
2007,07,10,04,29,15.40
2007,07,10,04,30,15.10
2007,07,10,04,31,15.00
2007,07,10,04,32,14.80
2007,07,10,04,33,14.60
2007,07,10,04,34,14.50
2007,07,10,04,35,14.50
2007,07,10,04,36,14.50
2007,07,10,04,37,14.40
2007,07,10,04,38,14.40
2007,07,10,04,39,14.40
2007,07,10,04,40,14.50
2007,07,10,04,41,14.50
2007,07,10,04,42,14.60
2007,07,10,04,43,14.60
2007,07,10,04,44,14.60
2007,07,10,04,45,14.60
2007,07,10,04,46,14.60
2007,07,10,04,47,14.70
2007,07,10,04,48,14.80
2007,07,10,04,49,14.70
2007,07,10,04,50,14.70
2007,07,10,04,51,14.80
2007,07,10,04,52,14.90
2007,07,10,04,53,14.90
2007,07,10,04,54,14.90
2007,07,10,04,55,14.90
2007,07,10,04,56,15.00
2007,07,10,04,57,15.00
2007,07,10,04,58,15.00
2007,07,10,04,59,15.20
2007,07,10,05,00,15.40
2007,07,10,05,01,15.60
2007,07,10,05,02,15.80
2007,07,10,05,03,15.90
2007,07,10,05,04,15.90
2007,07,10,05,05,15.90
2007,07,10,05,06,15.90
2007,07,10,05,07,16.10
2007,07,10,05,08,16.30
2007,07,10,05,09,16.40
2007,07,10,05,10,16.60
2007,07,10,05,11,16.80
2007,07,10,05,12,16.90
2007,07,10,05,13,17.00
2007,07,10,05,14,17.10
2007,07,10,05,15,17.10
2007,07,10,05,16,17.10
2007,07,10,05,17,17.20
2007,07,10,05,18,17.10
2007,07,10,05,19,17.10
2007,07,10,05,20,17.00
2007,07,10,05,21,16.90
2007,07,10,05,22,16.80
2007,07,10,05,23,16.70
2007,07,10,05,24,16.50
2007,07,10,05,25,16.40
2007,07,10,05,26,16.40
2007,07,10,05,27,16.40
2007,07,10,05,28,16.50
2007,07,10,05,29,16.50
2007,07,10,05,30,16.50
2007,07,10,05,31,16.60
2007,07,10,05,32,16.80
2007,07,10,05,33,17.00
2007,07,10,05,34,17.10
2007,07,10,05,35,17.20
2007,07,10,05,36,17.40
2007,07,10,05,37,17.40
2007,07,10,05,38,17.40
2007,07,10,05,39,17.40
2007,07,10,05,40,17.50
2007,07,10,05,41,17.50
2007,07,10,05,42,17.50
2007,07,10,05,43,17.50
2007,07,10,05,44,17.50
2007,07,10,05,45,17.50
2007,07,10,05,46,17.50
2007,07,10,05,47,17.50
2007,07,10,05,48,17.50
2007,07,10,05,49,17.50
2007,07,10,05,50,17.50
2007,07,10,05,51,17.50
2007,07,10,05,52,17.50
2007,07,10,05,53,17.40
2007,07,10,05,54,17.40
2007,07,10,05,55,17.40
2007,07,10,05,56,17.40
2007,07,10,05,57,17.40
2007,07,10,05,58,17.40
2007,07,10,05,59,17.40
2007,07,10,06,00,17.40
2007,07,10,06,01,17.40
2007,07,10,06,02,17.40
2007,07,10,06,03,17.40
2007,07,10,06,04,17.50
2007,07,10,06,05,17.50
2007,07,10,06,06,17.50
2007,07,10,06,07,17.50
2007,07,10,06,08,17.50
2007,07,10,06,09,17.50
2007,07,10,06,10,17.50
2007,07,10,06,11,17.50
2007,07,10,06,12,17.50
2007,07,10,06,13,17.50
2007,07,10,06,14,17.50
2007,07,10,06,15,17.50
2007,07,10,06,16,17.50
2007,07,10,06,17,17.50
2007,07,10,06,18,17.60
2007,07,10,06,19,17.60
2007,07,10,06,20,17.60
2007,07,10,06,21,17.60
2007,07,10,06,22,17.60
2007,07,10,06,23,17.70
2007,07,10,06,24,17.70
2007,07,10,06,25,17.70
2007,07,10,06,26,17.60
2007,07,10,06,27,17.60
2007,07,10,06,28,17.60
2007,07,10,06,29,17.50
2007,07,10,06,30,17.50
2007,07,10,06,31,17.40
2007,07,10,06,32,17.30
2007,07,10,06,33,17.10
2007,07,10,06,34,17.00
2007,07,10,06,35,16.90
2007,07,10,06,36,16.80
2007,07,10,06,37,16.70
2007,07,10,06,38,16.70
2007,07,10,06,39,16.70
2007,07,10,06,40,16.70
2007,07,10,06,41,16.70
2007,07,10,06,42,16.60
2007,07,10,06,43,16.60
2007,07,10,06,44,16.60
2007,07,10,06,45,16.70
2007,07,10,06,46,16.80
2007,07,10,06,47,16.80
2007,07,10,06,48,16.90
2007,07,10,06,49,16.90
2007,07,10,06,50,16.90
2007,07,10,06,51,17.10
2007,07,10,06,52,17.10
2007,07,10,06,53,17.20
2007,07,10,06,54,17.30
2007,07,10,06,55,17.40
2007,07,10,06,56,17.50
2007,07,10,06,57,17.60
2007,07,10,06,58,17.60
2007,07,10,06,59,17.70
2007,07,10,07,00,17.80
2007,07,10,07,01,17.80
2007,07,10,07,02,17.90
2007,07,10,07,03,18.00
2007,07,10,07,04,18.00
2007,07,10,07,05,18.10
2007,07,10,07,06,18.10
2007,07,10,07,07,18.20
2007,07,10,07,08,18.30
2007,07,10,07,09,18.50
2007,07,10,07,10,18.70
2007,07,10,07,11,18.80
2007,07,10,07,12,18.90
2007,07,10,07,13,19.10
2007,07,10,07,14,19.20
2007,07,10,07,15,19.30
2007,07,10,07,16,19.40
2007,07,10,07,17,19.50
2007,07,10,07,18,19.60
2007,07,10,07,19,19.70
2007,07,10,07,20,19.70
2007,07,10,07,21,19.80
2007,07,10,07,22,19.90
2007,07,10,07,23,19.90
2007,07,10,07,24,19.90
2007,07,10,07,25,19.90
2007,07,10,07,26,19.90
2007,07,10,07,27,19.90
2007,07,10,07,28,20.00
2007,07,10,07,29,20.00
2007,07,10,07,30,20.00
2007,07,10,07,31,20.10
2007,07,10,07,32,20.00
2007,07,10,07,33,20.00
2007,07,10,07,34,20.00
2007,07,10,07,35,20.00
2007,07,10,07,36,20.00
2007,07,10,07,37,20.00
2007,07,10,07,38,20.00
2007,07,10,07,39,19.90
2007,07,10,07,40,19.90
2007,07,10,07,41,19.80
2007,07,10,07,42,19.80
2007,07,10,07,43,19.80
2007,07,10,07,44,19.80
2007,07,10,07,45,19.80
2007,07,10,07,46,19.80
2007,07,10,07,47,19.80
2007,07,10,07,48,19.90
2007,07,10,07,49,19.90
2007,07,10,07,50,19.90
2007,07,10,07,51,19.90
2007,07,10,07,52,20.00
2007,07,10,07,53,20.00
2007,07,10,07,54,20.00
2007,07,10,07,55,20.00
2007,07,10,07,56,19.90
2007,07,10,07,57,19.90
2007,07,10,07,58,19.90
2007,07,10,07,59,19.90
2007,07,10,08,00,19.90
2007,07,10,08,01,19.90
2007,07,10,08,02,19.90
2007,07,10,08,03,19.90
2007,07,10,08,04,19.80
2007,07,10,08,05,19.70
2007,07,10,08,06,19.70
2007,07,10,08,07,19.60
2007,07,10,08,08,19.60
2007,07,10,08,09,19.60
2007,07,10,08,10,19.70
2007,07,10,08,11,19.70
2007,07,10,08,12,19.60
2007,07,10,08,13,19.50
2007,07,10,08,14,19.40
2007,07,10,08,15,19.40
2007,07,10,08,16,19.30
2007,07,10,08,17,19.30
2007,07,10,08,18,19.30
2007,07,10,08,19,19.20
2007,07,10,08,20,19.20
2007,07,10,08,21,19.20
2007,07,10,08,22,19.20
2007,07,10,08,23,19.10
2007,07,10,08,24,19.10
2007,07,10,08,25,19.00
2007,07,10,08,26,19.00
2007,07,10,08,27,19.00
2007,07,10,08,28,19.00
2007,07,10,08,29,19.00
2007,07,10,08,30,19.00
2007,07,10,08,31,19.00
2007,07,10,08,32,18.90
2007,07,10,08,33,18.90
2007,07,10,08,34,18.90
2007,07,10,08,35,18.90
2007,07,10,08,36,19.00
2007,07,10,08,37,19.00
2007,07,10,08,38,19.10
2007,07,10,08,39,19.10
2007,07,10,08,40,19.10
2007,07,10,08,41,19.10
2007,07,10,08,42,19.10
2007,07,10,08,43,19.20
2007,07,10,08,44,19.20
2007,07,10,08,45,19.20
2007,07,10,08,46,19.30
2007,07,10,08,47,19.30
2007,07,10,08,48,19.40
2007,07,10,08,49,19.50
2007,07,10,08,50,19.70
2007,07,10,08,51,19.80
2007,07,10,08,52,19.90
2007,07,10,08,53,20.00
2007,07,10,08,54,20.00
2007,07,10,08,55,19.80
2007,07,10,08,56,19.70
2007,07,10,08,57,19.60
2007,07,10,08,58,19.60
2007,07,10,08,59,19.60
2007,07,10,09,00,19.60
2007,07,10,09,01,19.70
2007,07,10,09,02,19.70
2007,07,10,09,03,19.80
2007,07,10,09,04,19.80
2007,07,10,09,05,19.80
2007,07,10,09,06,19.90
2007,07,10,09,07,19.90
2007,07,10,09,08,20.00
2007,07,10,09,09,20.00
2007,07,10,09,10,20.00
2007,07,10,09,11,20.00
2007,07,10,09,12,20.00
2007,07,10,09,13,20.00
2007,07,10,09,14,20.10
2007,07,10,09,15,20.10
2007,07,10,09,16,20.10
2007,07,10,09,17,20.20
2007,07,10,09,18,20.10
2007,07,10,09,19,20.10
2007,07,10,09,20,20.10
2007,07,10,09,21,20.00
2007,07,10,09,22,20.00
2007,07,10,09,23,20.00
2007,07,10,09,24,20.00
2007,07,10,09,25,20.00
2007,07,10,09,26,20.00
2007,07,10,09,27,20.00
2007,07,10,09,28,20.00
2007,07,10,09,29,19.90
2007,07,10,09,30,19.90
2007,07,10,09,31,19.90
2007,07,10,09,32,19.90
2007,07,10,09,33,19.90
2007,07,10,09,34,19.90
2007,07,10,09,35,19.90
2007,07,10,09,36,19.90
2007,07,10,09,37,19.90
2007,07,10,09,38,19.90
2007,07,10,09,39,19.90
2007,07,10,09,40,19.90
2007,07,10,09,41,20.00
2007,07,10,09,42,20.00
2007,07,10,09,43,20.10
2007,07,10,09,44,20.20
2007,07,10,09,45,20.30
2007,07,10,09,46,20.40
2007,07,10,09,47,20.50
2007,07,10,09,48,20.60
2007,07,10,09,49,20.80
2007,07,10,09,50,20.90
2007,07,10,09,51,21.10
2007,07,10,09,52,21.20
2007,07,10,09,53,21.30
2007,07,10,09,54,21.50
2007,07,10,09,55,21.60
2007,07,10,09,56,21.70
2007,07,10,09,57,21.80
2007,07,10,09,58,21.80
2007,07,10,09,59,22.00
2007,07,10,10,00,22.10
2007,07,10,10,01,22.30
2007,07,10,10,02,22.40
2007,07,10,10,03,22.50
2007,07,10,10,04,22.50
2007,07,10,10,05,22.60
2007,07,10,10,06,22.70
2007,07,10,10,07,22.70
2007,07,10,10,08,22.80
2007,07,10,10,09,22.80
2007,07,10,10,10,22.90
2007,07,10,10,11,22.90
2007,07,10,10,12,23.00
2007,07,10,10,13,23.10
2007,07,10,10,14,23.10
2007,07,10,10,15,23.10
2007,07,10,10,16,23.10
2007,07,10,10,17,23.10
2007,07,10,10,18,23.20
2007,07,10,10,19,23.30
2007,07,10,10,20,23.30
2007,07,10,10,21,23.30
2007,07,10,10,22,23.30
2007,07,10,10,23,23.40
2007,07,10,10,24,23.40
2007,07,10,10,25,23.40
2007,07,10,10,26,23.40
2007,07,10,10,27,23.50
2007,07,10,10,28,23.50
2007,07,10,10,29,23.50
2007,07,10,10,30,23.50
2007,07,10,10,31,23.60
2007,07,10,10,32,23.60
2007,07,10,10,33,23.70
2007,07,10,10,34,23.70
2007,07,10,10,35,23.70
2007,07,10,10,36,23.70
2007,07,10,10,37,23.70
2007,07,10,10,38,23.70
2007,07,10,10,39,23.70
2007,07,10,10,40,23.70
2007,07,10,10,41,23.70
2007,07,10,10,42,23.70
2007,07,10,10,43,23.70
2007,07,10,10,44,23.60
2007,07,10,10,45,23.50
2007,07,10,10,46,23.40
2007,07,10,10,47,23.30
2007,07,10,10,48,23.10
2007,07,10,10,49,23.00
2007,07,10,10,50,22.90
2007,07,10,10,51,22.80
2007,07,10,10,52,22.70
2007,07,10,10,53,22.60
2007,07,10,10,54,22.60
2007,07,10,10,55,22.60
2007,07,10,10,56,22.70
2007,07,10,10,57,22.80
2007,07,10,10,58,22.90
2007,07,10,10,59,23.00
2007,07,10,11,00,23.20
2007,07,10,11,01,23.40
2007,07,10,11,02,23.50
2007,07,10,11,03,23.70
2007,07,10,11,04,23.80
2007,07,10,11,05,23.90
2007,07,10,11,06,23.90
2007,07,10,11,07,23.90
2007,07,10,11,08,23.90
2007,07,10,11,09,23.80
2007,07,10,11,10,23.80
2007,07,10,11,11,23.80
2007,07,10,11,12,23.80
2007,07,10,11,13,23.70
2007,07,10,11,14,23.60
2007,07,10,11,15,23.60
2007,07,10,11,16,23.60
2007,07,10,11,17,23.70
2007,07,10,11,18,23.80
2007,07,10,11,19,23.90
2007,07,10,11,20,24.10
2007,07,10,11,21,24.20
2007,07,10,11,22,24.20
2007,07,10,11,23,24.20
2007,07,10,11,24,24.20
2007,07,10,11,25,24.30
2007,07,10,11,26,24.30
2007,07,10,11,27,24.40
2007,07,10,11,28,24.60
2007,07,10,11,29,24.60
2007,07,10,11,30,24.70
2007,07,10,11,31,24.70
2007,07,10,11,32,24.70
2007,07,10,11,33,24.60
2007,07,10,11,34,24.50
2007,07,10,11,35,24.40
2007,07,10,11,36,24.30
2007,07,10,11,37,24.20
2007,07,10,11,38,24.10
2007,07,10,11,39,24.10
2007,07,10,11,40,24.00
2007,07,10,11,41,24.10
2007,07,10,11,42,24.10
2007,07,10,11,43,24.10
2007,07,10,11,44,24.10
2007,07,10,11,45,24.10
2007,07,10,11,46,24.10
2007,07,10,11,47,24.20
2007,07,10,11,48,24.30
2007,07,10,11,49,24.40
2007,07,10,11,50,24.40
2007,07,10,11,51,24.40
2007,07,10,11,52,24.40
2007,07,10,11,53,24.50
2007,07,10,11,54,24.60
2007,07,10,11,55,24.70
2007,07,10,11,56,24.70
2007,07,10,11,57,24.70
2007,07,10,11,58,24.80
2007,07,10,11,59,24.70
2007,07,10,12,00,24.70
2007,07,10,12,01,24.80
2007,07,10,12,02,24.80
2007,07,10,12,03,24.90
2007,07,10,12,04,25.00
2007,07,10,12,05,25.20
2007,07,10,12,06,25.40
2007,07,10,12,07,25.50
2007,07,10,12,08,25.60
2007,07,10,12,09,25.70
2007,07,10,12,10,25.80
2007,07,10,12,11,25.60
2007,07,10,12,12,25.50
2007,07,10,12,13,25.40
2007,07,10,12,14,25.40
2007,07,10,12,15,25.50
2007,07,10,12,16,25.50
2007,07,10,12,17,25.50
2007,07,10,12,18,25.60
2007,07,10,12,19,25.60
2007,07,10,12,20,25.50
2007,07,10,12,21,25.40
2007,07,10,12,22,25.20
2007,07,10,12,23,25.10
2007,07,10,12,24,25.10
2007,07,10,12,25,25.00
2007,07,10,12,26,25.00
2007,07,10,12,27,25.10
2007,07,10,12,28,25.10
2007,07,10,12,29,25.20
2007,07,10,12,30,25.20
2007,07,10,12,31,25.20
2007,07,10,12,32,25.20
2007,07,10,12,33,25.30
2007,07,10,12,34,25.30
2007,07,10,12,35,25.30
2007,07,10,12,36,25.30
2007,07,10,12,37,25.20
2007,07,10,12,38,25.40
2007,07,10,12,39,25.50
2007,07,10,12,40,25.60
2007,07,10,12,41,25.70
2007,07,10,12,42,25.80
2007,07,10,12,43,25.90
2007,07,10,12,44,25.90
2007,07,10,12,45,26.00
2007,07,10,12,46,26.10
2007,07,10,12,47,26.10
2007,07,10,12,48,26.10
2007,07,10,12,49,26.10
2007,07,10,12,50,26.10
2007,07,10,12,51,26.00
2007,07,10,12,52,26.00
2007,07,10,12,53,26.10
2007,07,10,12,54,26.00
2007,07,10,12,55,25.90
2007,07,10,12,56,25.90
2007,07,10,12,57,25.90
2007,07,10,12,58,25.80
2007,07,10,12,59,25.90
2007,07,10,13,00,25.90
2007,07,10,13,01,25.90
2007,07,10,13,02,25.90
2007,07,10,13,03,25.90
2007,07,10,13,04,25.90
2007,07,10,13,05,25.80
2007,07,10,13,06,25.70
2007,07,10,13,07,25.70
2007,07,10,13,08,25.60
2007,07,10,13,09,25.60
2007,07,10,13,10,25.50
2007,07,10,13,11,25.50
2007,07,10,13,12,25.60
2007,07,10,13,13,25.70
2007,07,10,13,14,25.80
2007,07,10,13,15,25.80
2007,07,10,13,16,25.80
2007,07,10,13,17,25.80
2007,07,10,13,18,25.80
2007,07,10,13,19,25.80
2007,07,10,13,20,25.90
2007,07,10,13,21,25.90
2007,07,10,13,22,26.00
2007,07,10,13,23,26.00
2007,07,10,13,24,26.10
2007,07,10,13,25,26.20
2007,07,10,13,26,26.30
2007,07,10,13,27,26.30
2007,07,10,13,28,26.30
2007,07,10,13,29,26.20
2007,07,10,13,30,26.20
2007,07,10,13,31,26.30
2007,07,10,13,32,26.30
2007,07,10,13,33,26.40
2007,07,10,13,34,26.40
2007,07,10,13,35,26.40
2007,07,10,13,36,26.40
2007,07,10,13,37,26.50
2007,07,10,13,38,26.50
2007,07,10,13,39,26.50
2007,07,10,13,40,26.60
2007,07,10,13,41,26.60
2007,07,10,13,42,26.70
2007,07,10,13,43,26.70
2007,07,10,13,44,26.70
2007,07,10,13,45,26.70
2007,07,10,13,46,26.80
2007,07,10,13,47,26.80
2007,07,10,13,48,26.80
2007,07,10,13,49,26.80
2007,07,10,13,50,26.80
2007,07,10,13,51,26.70
2007,07,10,13,52,26.60
2007,07,10,13,53,26.50
2007,07,10,13,54,26.40
2007,07,10,13,55,26.50
2007,07,10,13,56,26.60
2007,07,10,13,57,26.60
2007,07,10,13,58,26.60
2007,07,10,13,59,26.70
2007,07,10,14,00,26.70
2007,07,10,14,01,26.70
2007,07,10,14,02,26.70
2007,07,10,14,03,26.70
2007,07,10,14,04,26.80
2007,07,10,14,05,26.80
2007,07,10,14,06,26.80
2007,07,10,14,07,26.80
2007,07,10,14,08,26.90
2007,07,10,14,09,26.90
2007,07,10,14,10,27.00
2007,07,10,14,11,27.10
2007,07,10,14,12,27.10
2007,07,10,14,13,27.10
2007,07,10,14,14,27.10
2007,07,10,14,15,27.10
2007,07,10,14,16,27.20
2007,07,10,14,17,27.30
2007,07,10,14,18,27.40
2007,07,10,14,19,27.40
2007,07,10,14,20,27.40
2007,07,10,14,21,27.40
2007,07,10,14,22,27.50
2007,07,10,14,23,27.50
2007,07,10,14,24,27.50
2007,07,10,14,25,27.60
2007,07,10,14,26,27.70
2007,07,10,14,27,27.70
2007,07,10,14,28,27.70
2007,07,10,14,29,27.70
2007,07,10,14,30,27.60
2007,07,10,14,31,27.60
2007,07,10,14,32,27.50
2007,07,10,14,33,27.50
2007,07,10,14,34,27.50
2007,07,10,14,35,27.50
2007,07,10,14,36,27.60
2007,07,10,14,37,27.60
2007,07,10,14,38,27.60
2007,07,10,14,39,27.70
2007,07,10,14,40,27.70
2007,07,10,14,41,27.70
2007,07,10,14,42,27.80
2007,07,10,14,43,27.80
2007,07,10,14,44,27.90
2007,07,10,14,45,28.00
2007,07,10,14,46,28.10
2007,07,10,14,47,28.30
2007,07,10,14,48,28.30
2007,07,10,14,49,28.30
2007,07,10,14,50,28.30
2007,07,10,14,51,28.20
2007,07,10,14,52,28.10
2007,07,10,14,53,28.10
2007,07,10,14,54,28.00
2007,07,10,14,55,28.00
2007,07,10,14,56,28.00
2007,07,10,14,57,28.10
2007,07,10,14,58,28.10
2007,07,10,14,59,28.10
2007,07,10,15,00,28.00
2007,07,10,15,01,28.00
2007,07,10,15,02,27.90
2007,07,10,15,03,27.90
2007,07,10,15,04,28.00
2007,07,10,15,05,28.00
2007,07,10,15,06,28.20
2007,07,10,15,07,28.30
2007,07,10,15,08,28.50
2007,07,10,15,09,28.70
2007,07,10,15,10,28.70
2007,07,10,15,11,28.80
2007,07,10,15,12,28.90
2007,07,10,15,13,28.90
2007,07,10,15,14,29.00
2007,07,10,15,15,29.10
2007,07,10,15,16,29.20
2007,07,10,15,17,29.20
2007,07,10,15,18,29.20
2007,07,10,15,19,29.10
2007,07,10,15,20,29.10
2007,07,10,15,21,29.00
2007,07,10,15,22,28.90
2007,07,10,15,23,28.90
2007,07,10,15,24,28.90
2007,07,10,15,25,29.00
2007,07,10,15,26,29.10
2007,07,10,15,27,29.20
2007,07,10,15,28,29.20
2007,07,10,15,29,29.20
2007,07,10,15,30,29.30
2007,07,10,15,31,29.40
2007,07,10,15,32,29.50
2007,07,10,15,33,29.60
2007,07,10,15,34,29.70
2007,07,10,15,35,29.80
2007,07,10,15,36,29.90
2007,07,10,15,37,29.90
2007,07,10,15,38,29.90
2007,07,10,15,39,29.90
2007,07,10,15,40,30.00
2007,07,10,15,41,30.10
2007,07,10,15,42,30.10
2007,07,10,15,43,30.10
2007,07,10,15,44,30.10
2007,07,10,15,45,30.10
2007,07,10,15,46,30.00
2007,07,10,15,47,30.00
2007,07,10,15,48,30.00
2007,07,10,15,49,30.10
2007,07,10,15,50,30.10
2007,07,10,15,51,30.10
2007,07,10,15,52,30.10
2007,07,10,15,53,30.20
2007,07,10,15,54,30.20
2007,07,10,15,55,30.20
2007,07,10,15,56,30.30
2007,07,10,15,57,30.30
2007,07,10,15,58,30.30
2007,07,10,15,59,30.30
2007,07,10,16,00,30.20
2007,07,10,16,01,30.20
2007,07,10,16,02,30.20
2007,07,10,16,03,30.20
2007,07,10,16,04,30.20
2007,07,10,16,05,30.10
2007,07,10,16,06,30.10
2007,07,10,16,07,30.20
2007,07,10,16,08,30.30
2007,07,10,16,09,30.30
2007,07,10,16,10,30.30
2007,07,10,16,11,30.50
2007,07,10,16,12,30.60
2007,07,10,16,13,30.60
2007,07,10,16,14,30.50
2007,07,10,16,15,30.50
2007,07,10,16,16,30.60
2007,07,10,16,17,30.60
2007,07,10,16,18,30.70
2007,07,10,16,19,30.70
2007,07,10,16,20,30.70
2007,07,10,16,21,30.70
2007,07,10,16,22,30.60
2007,07,10,16,23,30.60
2007,07,10,16,24,30.60
2007,07,10,16,25,30.50
2007,07,10,16,26,30.40
2007,07,10,16,27,30.40
2007,07,10,16,28,30.40
2007,07,10,16,29,30.50
2007,07,10,16,30,30.60
2007,07,10,16,31,30.60
2007,07,10,16,32,30.70
2007,07,10,16,33,30.80
2007,07,10,16,34,30.90
2007,07,10,16,35,31.00
2007,07,10,16,36,31.00
2007,07,10,16,37,31.00
2007,07,10,16,38,30.90
2007,07,10,16,39,30.80
2007,07,10,16,40,30.80
2007,07,10,16,41,30.80
2007,07,10,16,42,30.80
2007,07,10,16,43,30.90
2007,07,10,16,44,31.00
2007,07,10,16,45,31.00
2007,07,10,16,46,31.10
2007,07,10,16,47,31.10
2007,07,10,16,48,31.20
2007,07,10,16,49,31.10
2007,07,10,16,50,31.00
2007,07,10,16,51,31.00
2007,07,10,16,52,31.00
2007,07,10,16,53,31.10
2007,07,10,16,54,31.20
2007,07,10,16,55,31.20
2007,07,10,16,56,31.20
2007,07,10,16,57,31.10
2007,07,10,16,58,31.10
2007,07,10,16,59,31.20
2007,07,10,17,00,31.30
2007,07,10,17,01,31.30
2007,07,10,17,02,31.40
2007,07,10,17,03,31.50
2007,07,10,17,04,31.60
2007,07,10,17,05,31.60
2007,07,10,17,06,31.70
2007,07,10,17,07,31.70
2007,07,10,17,08,31.70
2007,07,10,17,09,31.70
2007,07,10,17,10,31.80
2007,07,10,17,11,31.80
2007,07,10,17,12,31.80
2007,07,10,17,13,31.70
2007,07,10,17,14,31.60
2007,07,10,17,15,31.50
2007,07,10,17,16,31.50
2007,07,10,17,17,31.50
2007,07,10,17,18,31.50
2007,07,10,17,19,31.50